Theta_e
350 350 351 348 350 352 350 351 352 350 350 350 349 348 348 348 350 351 349 338 338 343 344 349 345 347 352 346 347 346 346 349 348 348 345 347 344 344 343 344 343 343 342 342 342 341 342 341 340 340 340 340 341 341 341 340 340 338 337 336 337 338
348 348 349 347 350 350 351 352 353 356 353 352 350 350 352 352 349 353 349 349 348 345 348 342 345 343 345 343 347 346 345 346 347 348 347 347 345 344 342 342 343 342 342 341 339 335 338 339 339 340 341 341 342 340 342 341 341 338 336 338 338 338
345 347 350 350 347 348 349 349 348 348 348 349 351 350 353 351 349 351 347 348 348 345 347 344 345 344 346 348 346 347 345 345 347 348 348 347 347 344 342 342 341 342 342 340 335 334 336 335 338 336 339 342 338 338 340 341 341 339 337 338 338 339
344 348 350 350 351 352 351 353 352 353 352 353 353 351 351 350 348 349 345 348 348 345 345 349 345 349 347 342 346 345 343 342 344 345 347 347 348 343 343 341 340 342 342 337 335 336 333 334 335 338 340 338 337 338 340 341 338 339 338 336 336 339
344 345 346 349 350 349 351 350 350 352 352 350 350 349 349 350 349 349 349 345 344 347 345 347 344 345 343 345 344 345 344 343 341 340 346 340 339 341 341 341 342 340 338 337 337 337 336 335 337 336 337 337 337 337 339 340 338 338 340 340 340 339
342 342 347 345 344 346 349 349 350 349 350 350 347 348 350 350 349 351 350 347 346 346 341 343 346 343 345 346 345 343 344 345 343 342 340 338 338 338 336 339 338 337 340 340 338 338 336 336 335 335 335 337 337 338 338 337 337 339 339 339 343 340
342 343 343 344 344 344 342 343 348 349 347 345 346 347 348 348 349 351 351 349 346 343 341 341 344 345 344 345 345 346 344 346 345 342 343 339 337 338 337 335 338 338 339 340 337 336 337 336 336 333 335 335 336 336 337 337 337 339 340 340 342 340
342 343 344 343 345 345 344 343 346 348 346 345 345 345 347 347 348 349 351 349 350 347 342 340 339 341 344 345 346 347 347 344 343 340 341 337 336 335 335 335 337 336 336 336 335 336 335 334 335 335 334 335 336 336 337 337 338 338 339 339 340 341
339 341 343 342 341 342 345 344 344 343 344 344 343 344 346 348 348 347 348 348 347 348 345 343 341 341 344 345 347 347 347 345 344 339 339 338 336 335 335 334 335 336 336 336 335 336 334 334 335 336 334 334 334 334 336 337 337 337 338 337 340 341
338 337 339 339 339 339 339 342 344 344 345 345 345 348 350 346 347 346 344 344 343 346 344 344 342 342 344 346 347 348 346 347 345 342 343 338 336 335 334 334 333 335 333 334 333 334 334 334 333 335 334 333 333 335 336 336 336 335 336 338 339 341
337 342 338 335 337 338 338 338 339 345 346 343 346 347 344 347 346 342 344 345 344 343 343 346 346 345 345 346 345 344 346 345 346 344 342 337 338 335 335 335 333 332 334 333 333 334 333 334 333 333 333 332 333 336 335 336 335 334 335 336 337 339
336 343 340 332 337 335 336 338 339 339 344 342 346 342 344 346 346 347 347 346 346 349 348 349 349 347 344 340 345 346 346 344 339 344 341 339 342 336 336 334 332 334 335 335 334 334 335 333 334 331 333 332 332 334 334 335 334 335 334 336 336 338
336 341 339 335 332 333 337 336 337 338 343 345 345 346 345 342 345 345 347 346 343 346 348 349 350 348 344 344 346 346 346 343 340 343 343 341 338 340 336 334 334 334 334 336 335 335 333 334 334 335 336 333 333 331 331 333 335 335 334 334 335 336
338 335 337 333 335 332 334 335 337 338 340 343 342 342 343 344 343 341 342 345 342 343 345 347 346 346 346 345 346 344 344 342 343 342 342 340 341 338 336 334 334 333 332 333 333 336 333 332 331 335 336 336 336 335 334 331 334 334 336 335 335 336
342 338 337 335 333 333 334 332 335 336 337 337 338 339 344 343 343 342 343 343 342 344 344 345 345 346 345 345 343 344 342 342 342 342 343 341 341 335 335 334 337 332 334 334 333 333 335 336 333 333 334 337 334 334 336 333 333 334 334 336 337 335
340 339 338 337 335 335 335 335 334 333 335 335 333 335 339 341 340 341 340 339 342 344 344 345 346 346 344 343 342 342 343 342 343 343 340 342 340 332 335 339 338 337 333 332 332 334 334 333 332 332 334 335 334 336 336 333 332 331 333 334 331 335
341 339 338 335 333 335 334 334 333 334 334 333 332 332 333 335 334 337 338 338 341 342 344 343 344 344 344 342 342 340 343 342 341 338 336 339 338 336 337 337 338 339 338 335 332 330 332 334 333 333 333 332 335 335 333 333 333 333 330 331 331 332
343 340 335 333 334 333 333 333 331 332 331 331 332 331 331 332 333 333 336 339 341 341 341 341 342 342 343 342 340 340 341 340 339 331 334 335 338 337 338 336 335 335 335 333 332 330 331 334 332 331 332 332 333 335 334 334 335 335 332 330 330 330
341 337 334 334 334 333 332 331 332 330 331 330 330 331 332 330 331 332 335 336 335 335 334 338 339 340 340 340 340 339 335 334 335 335 333 334 335 334 335 337 332 333 335 334 333 333 333 332 330 330 331 333 334 332 336 335 334 333 333 332 331 331
337 334 333 332 330 327 325 324 325 326 327 328 329 329 330 330 331 330 332 333 333 333 333 333 333 334 334 336 337 337 335 335 336 333 331 330 333 334 335 337 336 335 335 334 334 335 334 331 331 330 331 332 332 332 331 334 335 335 335 334 335 335
336 334 330 327 326 324 323 323 325 323 325 325 327 328 327 328 329 331 331 328 328 328 329 331 331 332 332 332 333 338 338 333 335 333 332 332 332 333 335 336 336 334 333 333 333 332 333 334 330 327 333 331 331 331 331 332 332 332 332 334 336 336
334 332 329 328 325 324 325 323 322 323 321 321 321 322 323 327 327 329 328 326 326 325 326 329 330 331 332 331 330 331 333 334 337 335 334 332 330 331 332 333 332 331 331 330 329 333 333 333 327 326 325 326 330 333 329 330 331 327 332 332 335 337
333 330 330 330 325 324 325 327 323 321 320 320 326 328 324 325 327 325 327 326 327 328 328 327 329 328 329 329 330 330 331 332 332 333 333 332 332 333 333 332 330 328 328 329 329 334 334 332 328 329 329 323 321 322 330 330 330 327 331 329 330 331
333 331 330 329 325 327 328 329 330 327 328 325 322 324 326 327 326 327 325 325 327 328 327 327 327 327 327 327 329 329 330 330 330 332 331 329 329 328 330 330 330 328 328 326 326 328 334 332 333 329 319 321 322 319 315 321 327 328 327 325 328 329
332 330 329 327 328 329 327 326 327 328 325 324 324 323 323 323 325 323 324 324 325 326 326 326 327 327 325 325 327 329 329 329 328 329 328 327 327 327 328 329 329 330 328 327 324 327 330 333 331 331 329 321 317 315 317 320 324 326 330 328 327 325
331 330 328 328 329 325 323 321 318 316 315 316 315 318 319 320 321 322 320 324 324 326 326 327 326 326 325 325 327 328 329 327 327 327 327 326 325 325 324 325 329 329 329 331 328 327 326 331 332 333 334 331 323 321 319 322 321 315 327 331 330 329
330 328 328 328 328 324 323 322 321 318 316 316 316 318 322 323 322 321 323 324 325 328 327 327 327 326 325 324 326 327 328 327 325 326 325 326 324 324 323 323 326 326 327 327 328 325 325 324 329 331 332 330 332 330 330 324 316 320 315 322 327 330
329 326 328 329 327 325 323 322 322 320 317 317 317 318 321 323 325 322 323 324 324 326 327 327 326 326 326 326 326 325 325 324 321 321 321 321 323 323 324 324 326 327 326 326 325 325 324 325 323 325 330 329 328 327 330 329 326 321 320 316 319 330
328 327 328 329 326 325 324 323 322 321 317 318 320 321 320 321 321 323 323 322 323 324 325 325 324 325 324 321 319 319 319 318 317 316 314 315 319 320 323 324 324 324 325 325 324 324 322 321 322 322 322 322 324 323 326 327 326 323 320 315 315 320
327 326 327 329 327 326 325 324 322 320 319 317 319 319 319 320 322 323 322 322 322 322 322 322 323 323 321 319 319 319 318 317 317 315 314 316 316 318 319 321 322 323 324 323 323 323 323 322 322 323 322 321 320 320 320 320 321 319 319 320 314 315
327 325 327 328 326 326 326 326 323 322 320 319 319 320 318 321 321 321 321 321 321 321 322 320 321 322 321 320 321 319 319 318 318 317 315 315 316 315 317 317 318 320 320 320 320 320 320 321 320 320 320 319 317 317 316 316 316 316 316 314 314 314
326 325 327 327 327 326 325 326 325 324 321 321 321 320 320 320 320 320 321 319 320 320 321 321 321 320 320 320 321 320 320 319 318 318 316 316 316 315 315 316 316 317 317 318 318 316 317 316 317 316 318 318 317 317 317 316 316 316 315 314 313 312
325 326 327 326 325 326 326 326 324 324 322 321 322 321 320 320 322 319 320 320 319 318 320 320 320 320 320 321 320 321 320 318 317 318 317 315 316 316 316 316 316 316 317 316 316 316 314 314 314 314 313 315 314 314 315 316 316 315 315 315 314 312
325 326 326 326 326 325 327 327 326 325 324 320 321 322 321 320 322 320 320 320 319 318 319 320 321 321 320 320 321 322 321 320 318 318 317 317 317 317 317 315 316 316 316 316 316 315 314 314 314 313 313 311 312 312 313 314 314 314 313 312 312 312
324 327 326 326 326 325 325 327 326 326 325 324 321 319 320 321 323 321 321 322 320 319 319 320 321 323 322 322 322 322 322 321 319 318 317 317 317 317 316 315 315 317 316 316 316 315 314 314 312 312 311 311 310 311 311 311 313 312 312 312 311 311
324 327 327 326 327 325 325 326 328 328 328 327 322 321 319 320 322 324 324 321 320 320 320 320 322 324 324 323 323 323 322 321 320 319 318 317 317 316 316 315 315 316 315 315 315 315 315 314 313 312 311 311 311 310 310 310 311 311 312 313 312 312
325 327 327 328 327 326 326 327 329 330 330 330 329 326 321 323 326 327 326 324 321 321 321 321 321 324 324 325 324 324 322 322 321 319 318 317 316 316 316 315 315 315 315 316 315 313 314 314 313 313 313 311 311 310 311 311 310 312 313 313 313 312
Wind_Speed
6 8 8 9 8 5 9 10 9 10 9 8 9 8 7 7 5 5 11 14 8 6 5 4 5 6 7 7 7 7 8 7 7 5 4 7 7 8 10 10 10 10 10 9 8 7 6 5 5 3 1 6 8 6 4 2 3 2 1 4 2 6
6 7 7 8 6 7 8 10 7 9 8 8 8 8 8 7 7 6 7 9 7 4 5 3 2 5 8 7 8 8 9 7 7 7 5 6 7 8 9 9 9 10 10 9 10 6 5 6 4 3 1 4 7 4 3 3 2 3 1 3 1 9
8 7 7 6 6 7 9 8 10 10 8 9 9 9 7 7 8 7 4 6 4 3 5 10 8 4 1 7 6 7 6 8 8 7 7 6 7 10 9 9 9 10 9 9 8 6 5 5 5 5 5 5 5 2 2 2 3 1 2 4 4 10
8 8 7 5 5 5 6 6 5 6 6 6 7 7 8 8 8 7 10 4 4 7 6 2 6 6 5 5 6 8 6 2 5 7 7 7 8 12 12 12 10 9 7 7 5 5 6 5 4 4 3 3 3 2 3 3 3 2 1 2 6 9
7 7 7 6 5 5 5 5 5 5 5 5 6 6 7 8 7 6 5 5 7 5 4 4 4 4 5 3 2 3 4 5 6 6 8 6 6 8 8 8 6 6 6 5 4 5 4 4 4 4 3 3 2 1 3 3 2 2 2 2 7 8
6 6 5 5 5 5 5 4 5 4 4 4 5 6 6 6 6 6 5 5 3 4 4 3 2 3 4 1 2 3 4 3 5 5 5 5 4 4 6 8 6 6 5 4 5 3 4 4 4 5 4 3 3 3 4 4 3 2 1 2 8 9
5 5 6 5 5 5 5 5 4 5 5 5 5 5 6 6 5 5 5 4 4 4 4 3 3 3 2 1 1 2 4 4 4 4 4 3 5 4 4 5 6 5 5 6 6 5 4 4 4 5 5 5 4 4 3 4 4 3 2 2 8 11
5 5 4 4 4 4 4 5 4 5 5 4 3 5 5 5 5 5 5 4 2 2 3 4 4 4 2 1 2 2 3 4 2 3 5 5 4 3 4 4 4 5 5 5 6 6 6 5 5 5 4 5 4 4 4 4 4 3 3 3 4 10
6 5 4 3 4 4 3 4 5 5 4 6 6 4 4 4 5 5 5 6 5 3 3 4 4 3 1 2 2 2 3 3 3 4 6 4 4 3 3 4 4 5 5 4 4 5 6 6 5 5 6 6 6 5 4 4 5 5 4 3 3 9
5 5 4 3 1 1 2 3 4 4 4 5 4 4 4 4 4 4 5 5 1 4 5 5 4 3 2 2 3 2 3 3 3 2 3 3 4 4 4 4 5 5 5 6 5 5 5 6 7 7 6 7 6 6 5 5 5 5 4 4 3 6
6 3 3 4 2 2 1 1 2 4 4 5 4 4 4 3 2 1 1 1 5 8 7 5 4 2 4 4 3 3 3 4 4 3 3 3 3 2 2 3 4 6 6 5 6 5 6 7 7 7 6 7 6 6 6 6 5 5 5 4 4 4
6 4 2 3 4 3 2 2 1 3 3 3 4 4 4 3 2 3 3 2 1 3 4 3 2 3 4 2 6 3 4 3 5 5 5 3 3 2 1 4 3 4 6 7 5 4 3 5 6 5 6 7 6 7 7 6 6 6 5 4 4 4
4 4 4 2 1 0 1 2 2 2 2 2 3 3 3 3 2 3 2 2 1 2 3 3 2 3 3 4 3 2 4 3 5 5 4 4 5 3 3 4 5 5 6 5 5 5 5 4 5 4 3 5 6 7 7 6 6 6 6 5 5 4
3 4 2 1 1 1 2 1 2 1 2 3 2 2 2 3 2 2 3 2 2 3 4 3 3 2 2 2 2 2 2 4 5 5 3 4 3 3 3 4 5 5 5 5 4 4 4 4 4 4 4 3 5 5 6 7 6 7 6 5 5 4
4 3 3 2 1 0 1 1 2 2 2 1 3 2 2 2 3 3 3 2 1 1 1 1 1 1 1 2 2 2 3 3 4 4 3 3 4 5 3 4 3 6 4 4 4 2 2 2 4 3 3 3 4 4 5 7 6 6 7 6 5 6
6 4 3 2 1 1 2 1 2 1 2 1 1 2 2 2 2 2 3 2 1 1 2 3 3 2 1 1 2 2 2 1 4 4 3 3 1 4 6 3 3 3 4 3 3 4 2 2 5 6 5 4 3 4 5 6 7 7 7 6 7 6
7 5 4 3 3 3 2 2 2 3 2 1 1 1 2 1 2 1 1 2 2 2 2 3 3 3 2 0 0 2 1 3 4 3 3 3 2 2 1 2 2 2 1 1 1 4 4 3 2 2 5 9 4 4 5 5 6 7 7 6 7 6
7 6 5 4 4 3 3 3 3 3 1 2 1 1 0 1 1 1 2 2 2 2 3 3 2 2 1 1 0 1 2 2 5 3 4 4 4 3 3 2 2 1 2 1 1 1 2 3 2 2 1 3 10 4 3 5 5 4 6 7 7 7
7 7 6 5 4 3 3 2 2 2 4 3 2 1 1 1 1 1 2 2 2 1 2 2 3 2 1 2 3 2 2 2 2 6 5 3 4 4 4 4 3 2 2 2 2 2 1 1 1 4 3 2 5 10 4 4 5 6 6 7 6 6
7 7 6 5 4 4 3 4 3 3 3 2 2 2 1 1 1 1 2 2 3 2 3 3 2 2 0 1 2 3 3 3 4 4 4 4 5 5 5 4 5 5 6 4 2 1 1 2 2 3 5 4 5 8 8 6 6 6 5 6 6 6
7 7 6 6 4 4 4 3 3 2 3 3 2 3 2 2 2 4 5 5 4 4 3 3 3 2 1 0 0 2 4 6 5 3 3 3 4 5 5 3 3 3 6 7 6 5 4 3 2 2 3 5 5 5 4 2 7 8 5 5 5 6
7 7 6 5 4 3 3 3 4 4 2 3 4 3 4 3 3 4 5 4 4 3 3 2 2 2 2 2 0 2 2 5 4 4 4 5 3 3 4 5 4 4 5 7 5 4 4 5 3 2 1 2 4 3 5 4 4 8 4 4 5 5
8 8 7 6 5 5 3 2 1 4 2 4 4 4 4 4 3 5 4 4 4 4 3 4 3 3 2 2 3 2 2 2 3 4 5 5 4 4 5 5 5 5 4 6 5 3 5 4 3 3 2 1 2 3 1 1 4 5 4 6 7 8
9 8 7 7 5 5 5 5 4 4 4 3 5 5 4 4 4 3 5 5 5 4 5 4 4 3 2 3 3 3 3 3 4 4 4 3 3 2 1 1 3 3 4 4 5 3 4 5 3 3 2 2 1 2 1 1 1 1 3 7 7 9
9 8 7 7 7 6 7 6 5 6 6 5 4 4 4 4 3 4 4 5 5 4 5 4 5 5 5 4 3 3 4 4 4 3 3 4 3 2 2 1 1 2 3 2 3 1 1 3 4 5 2 2 2 2 1 2 1 1 1 2 2 9
9 8 8 8 7 7 7 7 7 7 7 6 5 4 4 4 4 3 5 4 5 5 5 4 5 6 5 5 5 4 4 4 4 4 4 4 4 4 2 2 3 2 2 2 1 2 2 1 3 4 5 4 1 1 1 1 1 1 1 2 2 3
9 8 8 8 9 7 8 7 8 7 6 6 5 4 4 4 4 4 4 5 5 5 6 6 5 6 6 6 6 5 5 5 5 4 4 4 5 4 4 5 4 3 4 4 3 1 2 1 2 2 4 5 3 1 2 3 3 0 2 2 3 3
10 9 9 8 9 8 8 8 8 7 6 6 4 7 6 5 5 4 5 4 4 5 5 5 5 5 6 6 6 6 6 5 5 5 5 5 5 4 4 5 5 5 4 3 4 3 3 3 1 1 1 1 2 2 3 2 2 3 2 2 3 2
11 11 10 11 10 10 8 8 8 7 7 5 5 5 6 5 5 5 5 4 4 5 5 5 6 6 7 7 7 7 6 6 5 5 5 6 5 6 6 5 5 5 6 5 4 3 2 3 3 3 1 1 1 3 1 3 3 1 1 1 2 2
13 11 11 12 11 11 10 8 8 8 9 7 5 5 4 6 5 5 6 5 5 4 5 5 5 6 7 7 7 7 7 7 7 6 6 7 6 6 6 6 6 5 5 6 5 5 5 4 4 4 4 3 4 4 2 3 2 3 1 2 4 4
13 11 12 13 13 12 11 9 8 9 10 9 8 6 5 6 5 6 6 5 5 4 4 5 5 5 6 6 7 7 7 7 6 6 6 6 5 5 5 5 5 6 6 6 5 5 5 5 3 4 4 4 3 4 3 3 3 2 3 3 4 5
14 13 12 12 13 12 11 10 9 9 10 9 9 7 7 7 7 7 6 6 5 5 5 5 5 5 5 6 6 6 6 6 6 6 5 5 5 5 5 5 4 4 5 5 5 4 5 5 4 3 3 3 3 3 3 3 3 2 2 2 3 5
15 15 13 13 13 13 12 11 10 10 10 9 9 8 7 6 6 6 6 6 5 5 5 5 5 5 6 6 5 5 5 5 6 5 5 5 5 5 5 5 5 5 5 5 5 5 5 5 5 4 3 3 3 2 3 3 3 3 2 2 4 5
16 15 13 13 14 13 13 12 11 10 9 9 9 8 7 6 6 6 5 6 6 5 5 5 6 6 6 6 4 5 5 6 6 6 6 5 5 4 4 4 5 5 5 5 5 5 5 5 4 4 3 3 3 3 3 2 3 2 2 3 4 4
14 15 15 14 12 13 12 12 11 10 9 8 9 8 8 6 6 6 5 6 5 5 4 5 5 6 7 6 6 5 6 6 6 6 6 5 5 4 4 4 5 4 4 4 4 4 4 4 4 4 3 3 2 2 3 3 3 3 3 3 4 4
14 13 13 13 12 13 12 10 10 10 10 8 8 8 8 7 6 6 6 7 7 6 5 4 5 6 7 7 7 7 7 6 6 6 5 5 4 4 4 3 4 3 4 3 3 3 3 3 3 3 2 3 2 2 3 3 4 3 4 4 4 4
12 11 12 12 11 12 11 10 8 9 8 8 8 9 8 9 8 7 7 7 7 8 7 6 6 7 8 8 8 8 7 7 7 6 6 5 5 5 4 3 4 4 3 3 3 3 3 2 2 1 2 2 3 2 1 2 3 4 4 4 4 4
Wind_Direction
145 142 142 139 139 158 149 143 140 123 113 116 120 121 113 122 145 144 131 122 115 220 167 176 183 162 170 156 157 148 159 159 167 169 160 122 159 166 154 143 140 135 134 127 118 102 90 80 76 51 105 179 181 211 205 184 174 166 224 118 219 95
135 143 141 138 147 157 159 162 156 157 158 149 144 141 160 173 178 176 129 150 165 184 164 150 256 182 180 180 165 156 170 174 180 179 167 148 155 154 151 149 144 142 137 135 145 178 155 122 92 49 94 188 208 221 166 174 223 161 144 122 178 101
139 138 141 136 144 153 171 159 172 168 173 179 176 183 185 184 184 187 151 172 185 197 192 197 179 163 75 72 129 137 164 195 192 188 178 176 141 148 151 147 152 144 140 150 183 201 195 178 162 155 212 214 227 215 176 165 205 166 206 81 91 109
151 145 147 139 141 144 152 162 153 151 155 169 175 190 194 196 203 190 178 177 203 195 205 177 116 168 168 191 144 145 144 175 246 211 180 180 158 151 156 152 160 136 156 187 197 198 205 196 185 193 200 232 228 162 210 178 207 171 179 169 108 126
156 158 152 147 153 145 149 159 151 142 153 167 173 183 188 199 205 197 195 157 215 193 204 188 174 202 228 187 207 195 185 214 219 216 175 226 204 161 167 152 150 173 196 209 196 203 205 187 211 200 203 224 239 211 218 188 242 188 155 139 100 137
164 157 154 166 166 150 163 154 150 142 153 165 177 184 190 191 187 191 209 194 199 187 215 207 209 240 228 218 220 240 237 207 234 246 202 218 212 203 187 162 169 178 187 201 213 209 200 202 210 220 213 189 233 212 213 205 180 234 181 157 123 148
162 158 173 170 158 169 179 170 158 154 167 168 175 195 198 190 189 185 199 193 192 206 205 234 208 228 252 207 252 278 241 214 225 239 232 236 214 196 227 181 176 182 189 204 206 204 214 192 232 220 224 212 221 231 210 214 198 198 188 214 128 156
154 154 172 183 170 177 170 172 160 152 193 128 192 198 206 203 190 191 193 190 221 221 235 224 235 232 203 217 250 273 254 215 184 273 234 224 216 218 215 226 170 185 195 212 205 208 218 208 186 237 239 231 218 235 235 217 213 205 185 209 153 160
149 161 154 183 175 180 173 179 173 176 173 149 202 201 220 205 206 195 190 211 192 228 248 240 237 229 181 216 225 231 211 211 179 249 259 214 237 228 232 230 202 194 190 185 211 213 216 219 205 205 220 234 235 226 223 231 220 205 208 184 228 157
166 159 148 176 163 170 177 183 182 171 161 180 178 171 196 212 212 206 197 190 230 263 240 253 241 237 235 248 243 222 216 216 210 209 309 271 228 238 247 229 217 205 193 189 199 205 224 224 223 207 220 225 223 235 215 224 220 218 203 208 199 147
158 156 172 181 170 145 188 255 190 186 166 189 162 179 193 207 211 202 304 255 202 204 234 237 252 250 252 261 253 232 241 223 211 214 228 258 279 283 264 249 219 193 191 209 204 193 215 228 229 220 214 228 221 230 224 225 228 224 229 220 210 193
149 166 213 214 161 180 197 201 218 191 216 178 173 206 198 169 157 106 94 94 213 276 249 246 233 241 254 243 261 250 243 239 223 216 214 226 248 159 171 247 192 187 201 199 181 192 214 237 244 236 217 230 227 228 222 222 226 228 228 230 235 231
163 161 204 249 16 91 185 192 179 198 168 156 197 207 208 178 129 115 117 173 192 252 279 255 226 231 253 257 275 237 242 229 223 209 207 223 265 120 217 201 183 178 188 176 182 181 201 223 234 239 236 229 238 233 236 226 224 236 240 228 236 240
186 182 211 213 57 241 125 166 173 186 161 194 208 195 194 200 184 188 162 148 184 260 261 259 262 225 263 258 265 251 252 235 210 200 202 210 219 71 295 246 169 168 171 177 174 195 209 213 240 232 232 228 221 241 244 239 228 230 243 248 248 258
173 192 174 171 196 130 140 118 169 139 118 219 192 167 118 158 179 186 195 159 172 202 292 358 17 359 347 308 292 262 231 229 196 152 201 195 198 193 157 244 199 159 181 186 188 219 248 315 255 260 250 228 229 212 227 240 240 237 234 240 250 246
171 179 165 122 121 74 101 119 74 116 125 50 172 171 147 134 130 156 189 153 76 12 3 18 25 30 16 304 292 264 225 176 159 161 176 207 166 218 173 214 127 149 172 198 226 152 93 360 351 315 274 248 234 223 230 233 230 235 235 244 241 237
168 167 153 145 131 114 131 128 122 81 100 145 182 191 200 191 169 94 40 102 102 69 46 48 40 52 46 324 14 292 242 169 172 168 133 89 151 238 85 127 80 38 77 110 279 314 154 134 175 254 353 307 248 227 233 226 230 230 237 229 242 239
157 150 148 153 151 160 145 134 154 133 94 93 79 83 63 108 134 162 101 91 81 75 60 52 55 71 105 51 67 194 233 201 148 163 190 164 165 171 151 106 138 298 339 284 266 285 334 338 325 342 266 354 305 264 238 244 241 234 236 229 227 246
153 145 146 153 152 150 139 166 116 169 145 154 139 57 8 98 112 144 116 95 63 55 58 48 54 66 49 112 111 122 40 47 130 158 181 197 202 194 189 193 182 237 255 276 296 291 302 342 325 305 315 277 268 296 265 232 228 235 229 236 248 249
156 152 148 164 177 189 182 176 161 173 157 116 118 102 44 73 284 108 78 53 58 34 36 25 41 45 52 78 141 128 137 124 96 128 140 187 210 213 217 215 211 223 234 222 199 218 151 133 318 315 300 295 278 264 297 342 304 243 243 257 248 246
155 157 167 171 180 191 179 162 160 173 144 141 126 117 113 52 37 61 36 53 45 43 33 32 11 24 55 148 152 128 148 144 158 154 173 153 193 216 228 230 236 224 236 227 221 211 195 183 158 251 246 263 271 287 267 230 311 280 248 242 257 267
158 162 174 179 165 186 184 175 169 158 152 142 147 162 129 118 90 80 77 67 50 40 55 50 45 50 29 28 69 157 146 147 168 163 162 164 165 216 207 209 221 237 226 230 228 194 188 162 174 197 338 314 283 247 261 264 219 275 289 275 289 285
166 164 177 183 177 169 166 94 147 114 148 110 66 44 64 82 98 102 82 78 71 64 72 83 67 45 40 39 32 30 79 80 134 154 157 156 170 201 214 208 198 222 202 217 218 184 175 196 175 156 117 350 292 274 267 247 254 273 331 337 321 294
165 168 179 181 184 148 131 126 102 116 88 76 107 109 105 112 103 97 90 68 75 68 58 48 50 85 69 68 52 65 64 64 86 93 123 125 114 94 278 189 175 213 232 209 201 205 179 192 222 163 191 208 252 307 264 244 233 66 333 315 326 305
165 167 182 178 179 148 142 143 135 128 125 120 131 140 146 130 121 104 93 87 85 71 65 68 73 55 75 79 80 67 67 75 65 59 79 100 96 100 117 106 281 219 201 227 200 204 193 194 200 230 215 170 213 220 263 32 358 297 51 3 314 291
164 167 180 182 183 172 165 159 157 159 155 154 151 159 154 134 139 111 83 99 92 80 79 73 69 72 73 87 92 85 79 84 76 68 59 68 93 99 83 76 35 35 91 79 357 205 199 131 265 206 232 258 239 268 120 110 88 263 61 244 290 287
165 166 179 183 189 185 174 171 172 168 163 164 151 132 102 112 112 105 99 90 94 89 94 90 80 84 86 86 84 85 82 75 83 81 75 75 74 65 57 45 53 41 45 43 37 317 150 42 313 184 229 229 207 197 209 197 236 227 256 294 269 268
168 169 178 184 193 195 184 180 179 176 165 170 159 127 135 123 114 114 109 108 107 106 94 93 94 89 91 85 82 83 79 76 77 79 87 83 78 73 78 80 68 65 56 58 62 69 74 102 285 150 221 222 162 335 177 233 283 258 259 249 226 229
172 174 175 184 194 198 195 185 183 176 167 164 153 137 145 139 133 125 121 114 102 97 89 76 85 97 95 95 93 85 80 76 69 76 86 89 83 80 75 74 74 66 67 64 53 42 43 46 48 42 311 304 237 183 186 92 101 204 270 270 261 225
176 179 177 184 194 200 200 191 190 180 171 165 163 151 157 141 145 151 137 134 133 129 115 109 99 99 102 97 92 92 89 84 81 71 69 77 86 85 83 82 71 71 73 82 73 63 51 44 37 36 11 3 343 343 289 187 114 21 315 284 283 286
180 181 179 186 193 201 201 198 196 186 178 171 169 168 170 159 158 166 154 151 151 136 135 122 120 115 109 106 97 90 90 90 86 80 80 82 75 85 92 89 86 80 73 71 71 72 66 51 45 43 16 23 10 15 12 351 2 352 347 315 306 299
181 187 183 186 192 201 202 201 203 194 185 180 176 182 186 176 175 174 168 161 154 150 149 142 144 134 132 123 116 106 103 100 93 91 86 81 87 90 88 87 84 86 85 79 80 75 66 57 43 50 38 19 19 1 15 1 20 349 327 327 311 301
184 189 187 188 192 197 203 204 204 201 194 186 185 191 192 193 184 184 178 172 164 169 162 165 162 154 144 145 132 127 118 107 105 99 94 93 85 75 77 82 84 86 76 74 69 66 70 59 43 22 29 19 3 10 5 15 342 344 318 301 286 282
188 188 187 191 191 195 203 207 206 206 201 192 189 191 197 199 190 195 182 176 180 182 174 179 168 168 154 160 145 126 115 106 105 109 106 99 93 87 84 93 93 84 86 80 78 81 81 75 66 52 15 2 1 354 350 342 331 299 313 296 300 303
189 186 190 190 190 197 203 208 210 211 208 203 193 191 198 200 194 197 192 178 186 186 186 184 174 168 158 164 145 136 127 123 118 113 112 107 102 96 83 78 83 75 74 75 80 70 67 58 58 50 35 1 347 346 334 330 321 310 309 306 301 308
192 186 188 187 189 194 201 205 209 213 214 212 206 197 198 198 197 196 196 194 186 187 189 181 172 163 165 165 156 147 144 136 132 127 123 122 118 104 102 97 91 91 87 86 90 84 98 96 66 48 28 357 307 352 332 336 310 333 315 324 295 284
189 187 185 186 190 188 196 197 203 211 212 211 214 211 203 192 190 188 193 196 197 190 183 182 171 167 171 167 165 160 152 147 144 139 135 131 125 123 126 111 100 100 94 88 79 70 46 47 73 34 48 350 322 313 345 329 307 318 317 299 294 290